User: anonymous   Login
Location: Caltech
(34.1382°N, 118.1253°W)
Time: 20:20:05
(UTC-07:00)
Language:

Cosmos 1833 - Orbit

View from above orbital plane
View from above orbital plane
View from above satellite
View from above satellite

Ground track
Ground track

The orbit data is extracted from the following two-line orbital elements,

1 17589U 87027A   16144.88270969 -.00000319 +00000-0 -14507-3 0  9994
2 17589 070.9188 282.8358 0022295 194.1062 165.9439 14.12872185505088
Epoch (UTC): 23 May 2016 21:11:06
Eccentricity: 0.0022295
inclination: 70.9188°
perigee height: 833 km
apogee height: 865 km
right ascension of ascending node: 282.8358°
argument of perigee: 194.1062°
revolutions per day: 14.12872185
mean anomaly at epoch: 165.9439°
orbit number at epoch: 50508

The dashed part of the orbit path shows where the satellite is in the earth's shadow,  

DLR